Time,TemperatureF,DewpointF,PressureIn,WindDirection,WindDirectionDegrees,WindSpeedMPH,WindSpeedGustMPH,Humidity,HourlyPrecipIn,Conditions,Clouds,dailyrainin,SolarRadiationWatts/m^2,SoftwareType,DateUTC
2013-03-31 00:03:00,34.0,-99.9,-100.00,WSW,249,0.0,0.0,58,0.00,,,0.00,0.000000,,2013-03-31 04:03:00,
2013-03-31 00:33:00,34.0,21.0,-100.00,NNW,342,1.0,2.0,59,0.00,,,0.00,0.000000,,2013-03-31 04:33:00,
2013-03-31 00:43:00,34.0,21.0,-100.00,NNW,342,1.0,2.0,59,0.00,,,0.00,0.000000,,2013-03-31 04:43:00,
2013-03-31 00:53:00,34.0,21.0,-100.00,NNW,342,1.0,2.0,59,0.00,,,0.00,0.000000,,2013-03-31 04:53:00,
2013-03-31 01:02:00,34.0,21.0,-100.00,NNW,342,1.0,2.0,59,0.00,,,0.00,0.000000,,2013-03-31 05:02:00,
2013-03-31 01:32:00,34.0,22.0,-100.00,SSE,166,0.0,3.0,60,0.00,,,0.00,0.000000,,2013-03-31 05:32:00,
2013-03-31 01:42:00,34.0,22.0,-100.00,SSE,166,0.0,3.0,60,0.00,,,0.00,0.000000,,2013-03-31 05:42:00,
2013-03-31 01:53:00,34.0,22.0,-100.00,SSE,166,0.0,3.0,60,0.00,,,0.00,0.000000,,2013-03-31 05:53:00,
2013-03-31 02:02:00,34.0,22.0,-100.00,SSE,166,0.0,3.0,60,0.00,,,0.00,0.000000,,2013-03-31 06:02:00,
2013-03-31 02:33:00,33.0,21.0,-100.00,WSW,251,0.0,3.0,61,0.00,,,0.00,0.000000,,2013-03-31 06:33:00,
2013-03-31 02:42:00,33.0,21.0,-100.00,WSW,251,0.0,3.0,61,0.00,,,0.00,0.000000,,2013-03-31 06:42:00,
2013-03-31 02:53:00,33.0,21.0,-100.00,WSW,251,0.0,3.0,61,0.00,,,0.00,0.000000,,2013-03-31 06:53:00,
2013-03-31 03:02:00,33.0,21.0,-100.00,WSW,251,0.0,3.0,61,0.00,,,0.00,0.000000,,2013-03-31 07:02:00,
2013-03-31 04:32:00,35.0,20.0,-100.00,NNW,341,1.0,3.0,53,-99.99,,,0.00,0.000000,,2013-03-31 08:32:00,
2013-03-31 04:42:00,35.0,20.0,-100.00,NNW,341,1.0,3.0,53,-99.99,,,0.00,0.000000,,2013-03-31 08:42:00,
2013-03-31 04:52:00,35.0,20.0,-100.00,NNW,341,1.0,3.0,53,-99.99,,,0.00,0.000000,,2013-03-31 08:52:00,
2013-03-31 05:02:00,35.0,20.0,-100.00,NNW,341,1.0,3.0,53,-99.99,,,0.00,0.000000,,2013-03-31 09:02:00,
2013-03-31 05:33:00,35.0,20.0,-100.00,SSW,200,1.0,5.0,54,0.00,,,-99.99,0.000000,,2013-03-31 09:33:00,
2013-03-31 05:43:00,35.0,20.0,-100.00,SSW,200,1.0,5.0,54,0.00,,,-99.99,0.000000,,2013-03-31 09:43:00,
2013-03-31 05:53:00,35.0,20.0,-100.00,SSW,200,1.0,5.0,54,0.00,,,-99.99,0.000000,,2013-03-31 09:53:00,
2013-03-31 06:03:00,35.0,20.0,-100.00,SSW,200,1.0,5.0,54,0.00,,,-99.99,0.000000,,2013-03-31 10:03:00,
2013-03-31 06:33:00,36.0,19.0,-100.00,SSW,204,1.0,8.0,50,0.00,,,0.00,0.000000,,2013-03-31 10:33:00,
2013-03-31 06:42:00,36.0,19.0,-100.00,SSW,204,1.0,8.0,50,0.00,,,0.00,0.000000,,2013-03-31 10:42:00,
2013-03-31 06:53:00,36.0,19.0,-100.00,SSW,204,1.0,8.0,50,0.00,,,0.00,0.000000,,2013-03-31 10:53:00,
2013-03-31 07:03:00,36.0,19.0,-100.00,SSW,204,1.0,8.0,50,0.00,,,0.00,0.000000,,2013-03-31 11:03:00,
2013-03-31 07:33:00,37.0,19.0,-100.00,SW,214,2.0,6.0,48,0.00,,,0.00,0.000000,,2013-03-31 11:33:00,
2013-03-31 07:43:00,37.0,19.0,-100.00,SW,214,2.0,6.0,48,0.00,,,0.00,0.000000,,2013-03-31 11:43:00,
2013-03-31 07:53:00,37.0,19.0,-100.00,SW,214,2.0,6.0,48,0.00,,,0.00,0.000000,,2013-03-31 11:53:00,
2013-03-31 08:03:00,37.0,19.0,-100.00,SW,214,2.0,6.0,48,0.00,,,0.00,0.000000,,2013-03-31 12:03:00,
2013-03-31 09:33:00,45.0,23.0,-100.00,SSW,197,4.0,12.0,41,-99.99,,,0.00,143.000000,,2013-03-31 13:33:00,
2013-03-31 09:42:00,45.0,23.0,-100.00,SSW,197,4.0,12.0,41,-99.99,,,0.00,143.000000,,2013-03-31 13:42:00,
2013-03-31 09:53:00,45.0,23.0,-100.00,SSW,197,4.0,12.0,41,-99.99,,,0.00,143.000000,,2013-03-31 13:53:00,
2013-03-31 10:03:00,45.0,23.0,-100.00,SSW,197,4.0,12.0,41,-99.99,,,0.00,143.000000,,2013-03-31 14:03:00,
2013-03-31 10:33:00,47.0,23.0,-100.00,South,183,7.0,12.0,39,0.00,,,0.00,203.000000,,2013-03-31 14:33:00,
2013-03-31 10:43:00,47.0,23.0,-100.00,South,183,7.0,12.0,39,0.00,,,0.00,203.000000,,2013-03-31 14:43:00,
2013-03-31 10:53:00,47.0,23.0,-100.00,South,183,7.0,12.0,39,0.00,,,0.00,203.000000,,2013-03-31 14:53:00,
2013-03-31 11:03:00,47.0,23.0,-100.00,South,183,7.0,12.0,39,0.00,,,0.00,203.000000,,2013-03-31 15:03:00,
2013-03-31 11:34:00,51.0,25.0,-100.00,SSE,168,7.0,16.0,36,0.00,,,0.00,412.000000,,2013-03-31 15:34:00,
2013-03-31 11:44:00,51.0,25.0,-100.00,SSE,168,7.0,16.0,36,0.00,,,0.00,412.000000,,2013-03-31 15:44:00,
2013-03-31 11:54:00,51.0,25.0,-100.00,SSE,168,7.0,16.0,36,0.00,,,0.00,412.000000,,2013-03-31 15:54:00,
2013-03-31 12:03:00,51.0,25.0,-100.00,SSE,168,7.0,16.0,36,0.00,,,0.00,412.000000,,2013-03-31 16:03:00,
2013-03-31 12:34:00,52.0,27.0,-100.00,South,182,9.0,19.0,37,0.00,,,0.00,367.000000,,2013-03-31 16:34:00,
2013-03-31 12:43:00,52.0,27.0,-100.00,South,182,9.0,19.0,37,0.00,,,0.00,367.000000,,2013-03-31 16:43:00,
2013-03-31 12:54:00,52.0,27.0,-100.00,South,182,9.0,19.0,37,0.00,,,0.00,367.000000,,2013-03-31 16:54:00,
2013-03-31 13:03:00,52.0,27.0,-100.00,South,182,9.0,19.0,37,0.00,,,0.00,367.000000,,2013-03-31 17:03:00,
2013-03-31 13:33:00,49.0,35.0,-100.00,SSW,206,7.0,19.0,59,0.00,,,0.00,250.000000,,2013-03-31 17:33:00,
2013-03-31 13:43:00,49.0,35.0,-100.00,SSW,206,7.0,19.0,59,0.00,,,0.00,250.000000,,2013-03-31 17:43:00,
2013-03-31 13:52:00,49.0,35.0,-100.00,SSW,206,7.0,19.0,59,0.00,,,0.00,250.000000,,2013-03-31 17:52:00,
2013-03-31 14:03:00,49.0,35.0,-100.00,SSW,206,7.0,19.0,59,0.00,,,0.00,250.000000,,2013-03-31 18:03:00,
2013-03-31 14:33:00,45.0,41.0,-100.00,SSW,194,3.0,13.0,86,0.02,,,0.02,118.000000,,2013-03-31 18:33:00,
2013-03-31 14:43:00,45.0,41.0,-100.00,SSW,194,3.0,13.0,86,0.02,,,0.02,118.000000,,2013-03-31 18:43:00,
2013-03-31 14:53:00,45.0,41.0,-100.00,SSW,194,3.0,13.0,86,0.02,,,0.02,118.000000,,2013-03-31 18:53:00,
2013-03-31 15:03:00,45.0,41.0,-100.00,SSW,194,3.0,13.0,86,0.02,,,0.02,118.000000,,2013-03-31 19:03:00,
2013-03-31 15:33:00,44.0,40.0,-100.00,South,179,5.0,13.0,86,0.03,,,-99.99,143.000000,,2013-03-31 19:33:00,
2013-03-31 15:43:00,44.0,40.0,-100.00,South,179,5.0,13.0,86,0.03,,,-99.99,143.000000,,2013-03-31 19:43:00,
2013-03-31 15:54:00,44.0,40.0,-100.00,South,179,5.0,13.0,86,0.03,,,-99.99,143.000000,,2013-03-31 19:54:00,
2013-03-31 16:03:00,44.0,40.0,-100.00,South,179,5.0,13.0,86,0.03,,,-99.99,143.000000,,2013-03-31 20:03:00,
2013-03-31 16:34:00,44.0,41.0,-100.00,SSW,207,3.0,10.0,90,0.03,,,0.08,132.000000,,2013-03-31 20:34:00,
2013-03-31 16:43:00,44.0,41.0,-100.00,SSW,207,3.0,10.0,90,0.03,,,0.08,132.000000,,2013-03-31 20:43:00,
2013-03-31 16:53:00,44.0,41.0,-100.00,SSW,207,3.0,10.0,90,0.03,,,0.08,132.000000,,2013-03-31 20:53:00,
2013-03-31 17:03:00,44.0,41.0,-100.00,SSW,207,3.0,10.0,90,0.03,,,0.08,132.000000,,2013-03-31 21:03:00,
2013-03-31 17:34:00,43.0,41.0,-100.00,South,179,3.0,7.0,92,0.04,,,0.12,85.000000,,2013-03-31 21:34:00,
2013-03-31 17:44:00,43.0,41.0,-100.00,South,179,3.0,7.0,92,0.04,,,0.12,85.000000,,2013-03-31 21:44:00,
2013-03-31 17:54:00,43.0,41.0,-100.00,South,179,3.0,7.0,92,0.04,,,0.12,85.000000,,2013-03-31 21:54:00,
2013-03-31 18:04:00,43.0,41.0,-100.00,South,179,3.0,7.0,92,0.04,,,0.12,85.000000,,2013-03-31 22:04:00,
2013-03-31 18:33:00,43.0,41.0,-100.00,SSE,155,3.0,6.0,92,0.02,,,0.14,65.000000,,2013-03-31 22:33:00,
2013-03-31 18:43:00,43.0,41.0,-100.00,SSE,155,3.0,6.0,92,0.02,,,0.14,65.000000,,2013-03-31 22:43:00,
2013-03-31 18:53:00,43.0,41.0,-100.00,SSE,155,3.0,6.0,92,0.02,,,0.14,65.000000,,2013-03-31 22:53:00,
2013-03-31 19:03:00,43.0,41.0,-100.00,SSE,155,3.0,6.0,92,0.02,,,0.14,65.000000,,2013-03-31 23:03:00,
2013-03-31 19:33:00,43.0,41.0,-100.00,SSE,160,3.0,7.0,93,0.00,,,0.14,42.000000,,2013-03-31 23:33:00,
2013-03-31 19:43:00,43.0,41.0,-100.00,SSE,160,3.0,7.0,93,0.00,,,0.14,42.000000,,2013-03-31 23:43:00,
2013-03-31 19:54:00,43.0,41.0,-100.00,SSE,160,3.0,7.0,93,0.00,,,0.14,42.000000,,2013-03-31 23:54:00,
2013-03-31 20:02:00,43.0,41.0,-100.00,SSE,160,3.0,7.0,93,0.00,,,0.14,42.000000,,2013-04-01 00:02:00,
2013-03-31 20:33:00,43.0,41.0,-100.00,SSE,160,5.0,8.0,94,0.01,,,0.15,4.000000,,2013-04-01 00:33:00,
2013-03-31 20:43:00,43.0,41.0,-100.00,SSE,160,5.0,8.0,94,0.01,,,0.15,4.000000,,2013-04-01 00:43:00,
2013-03-31 20:53:00,43.0,41.0,-100.00,SSE,160,5.0,8.0,94,0.01,,,0.15,4.000000,,2013-04-01 00:53:00,
2013-03-31 21:03:00,43.0,41.0,-100.00,SSE,160,5.0,8.0,94,0.01,,,0.15,4.000000,,2013-04-01 01:03:00,
2013-03-31 22:33:00,44.0,42.0,-100.00,South,181,3.0,8.0,92,-99.99,,,0.15,0.000000,,2013-04-01 02:33:00,
2013-03-31 22:43:00,44.0,42.0,-100.00,South,181,3.0,8.0,92,-99.99,,,0.15,0.000000,,2013-04-01 02:43:00,
2013-03-31 22:53:00,44.0,42.0,-100.00,South,181,3.0,8.0,92,-99.99,,,0.15,0.000000,,2013-04-01 02:53:00,
2013-03-31 23:03:00,44.0,42.0,-100.00,South,181,3.0,8.0,92,-99.99,,,0.15,0.000000,,2013-04-01 03:03:00,
2013-03-31 23:35:00,43.0,41.0,-100.00,South,180,4.0,13.0,92,0.00,,,0.15,0.000000,,2013-04-01 03:35:00,
2013-03-31 23:43:00,43.0,41.0,-100.00,South,180,4.0,13.0,92,0.00,,,0.15,0.000000,,2013-04-01 03:43:00,
2013-03-31 23:53:00,43.0,41.0,-100.00,South,180,4.0,13.0,92,0.00,,,0.15,0.000000,,2013-04-01 03:53:00,